SCP
0 0 0 0 0 0 0 0 0 0 0 0 0 0 0 0 0 0 0 0 0 0 0 0 0 0 0 0 0 0 0 0 0 0 0 0 0 0 0 0 0 0 0
0 0 0 0 0 0 0 0 0 0 0 0 0 0 0 0 0 0 0 0 0 0 0 0 0 0 0 0 0 0 0 0 0 0 0 0 0 0 0 0 0 0 0
0 0 0 0 0 0 0 0 0 0 0 0 0 0 0 0 0 0 0 0 0 0 0 0 0 0 0 0 0 0 0 0 0 0 -0 -0 0 0 0 0 0 0 0
0 0 0 0 0 0 0 0 0 0 0 0 0 0 0 0 0 0 0 0 0 0 0 0 0 0 0 0 0 0 0 0 0 0 0 0 0 0 0 0 0 0 0
0 0 0 0 0 0 0 0 0 0 0 0 0 0 0 0 0 0 0 0 0 0 0 0 0 0 0 0 0 0 0 0 0 0 0 0 0 0 0 0 0 0 0
0 0 0 0 0 0 0 0 0 0 0 0 0 0 0 0 0 0 0 0 0 0 0 0 0 0 0 0 0 0 0 0 0 0 0 0 0 0 0 0 0 0 0
0 0 0 0 0 0 0 0 0 0 0 0 0 0 0 0 0 0 0 0 0 0 0 0 0 0 0 0 0 0 0 0 0 0 0 0 0 0 0 0 0 0 0
0 0 0 0 0 0 0 0 0 0 0 0 0 0 0 0 0 0 0 0 0 0 0 0 0 0 0 0 0 0 0 0 0 0 0 0 0 0 0 0 0 0 0
0 0 0 0 0 0 0 0 0 0 0 0 0 0 0 0 0 0 0 0 0 0 0 0 0 0 0 0 0 0 0 0 0 0 0 0 0 0 0 0 0 0 0
0 0 0 0 0 0 0 0 0 0 0 0 0 0 0 0 0 0 0 0 0 0 0 0 0 0 0 0 0 0 0 0 0 0 0 0 0 0 0 0 0 0 0
0 0 0 0 0 0 0 0 0 0 0 0 0 0 0 0 0 0 0 0 0 0 0 0 0 0 0 0 0 0 0 0 0 0 0 0 0 0 0 0 0 0 0
0 0 0 0 0 0 0 0 0 0 0 0 0 0 0 0 0 0 0 0 0 0 0 0 0 0 0 0 0 0 0 0 0 0 0 0 0 0 0 0 0 0 0
0 0 0 0 0 0 0 0 0 0 0 0 0 0 0 0 0 0 0 0 0 0 0 0 0 -0 -0 -0 -0 -0 -0 0 0 0 0 0 0 0 0 0 0 0 0
0 0 0 0 0 0 0 0 0 0 0 0 0 0 0 0 0 0 0 0 0 0 0 0 -0 -0 -0 -0 -0 0 0 0 0 0 0 0 0 0 0 0 0 0 0
0 0 0 0 0 0 0 0 0 0 0 0 0 0 0 0 0 0 0 0 0 0 0 0 -0 -0 -0 -0 -0 0 0 0 0 0 0 0 0 0 0 0 0 0 0
1 0 0 0 0 0 0 0 0 0 0 0 0 0 0 0 0 0 0 0 0 0 0 0 -0 -0 -0 -0 0 0 0 0 0 0 0 0 0 0 0 0 0 0 0
1 1 1 1 0 0 0 0 0 0 0 0 0 0 0 0 0 0 0 0 0 0 0 0 0 -0 0 0 0 0 0 0 0 0 0 0 0 0 0 0 0 0 0
1 1 1 1 1 1 0 0 0 0 0 0 0 0 0 0 0 0 0 0 0 0 0 0 0 0 0 0 0 0 0 0 0 0 0 0 0 0 0 0 0 0 0
1 1 1 1 1 1 1 0 0 0 0 0 0 0 0 0 0 0 0 0 0 0 0 0 0 0 0 0 0 0 0 0 0 0 0 0 0 0 0 0 0 0 0
1 1 1 1 1 1 1 1 0 0 0 0 0 0 0 0 0 0 0 0 0 0 0 0 0 0 0 0 0 0 0 0 0 0 0 0 0 0 0 0 0 0 0
1 1 1 1 1 1 1 1 0 0 0 0 0 0 0 0 0 0 0 0 0 0 0 0 0 0 0 0 0 0 0 0 0 0 0 0 0 0 0 0 0 0 0
1 1 1 1 1 1 1 1 0 0 0 0 0 0 0 0 0 0 0 0 0 0 0 0 0 0 0 0 0 0 0 0 0 0 0 0 0 0 0 0 0 0 0
1 1 1 1 1 1 1 0 0 0 0 0 0 -0 0 0 0 0 0 0 0 0 0 0 0 0 0 0 0 0 0 0 0 0 0 0 0 0 0 0 0 0 0
1 1 1 1 1 1 1 0 0 0 0 0 0 -0 -0 0 0 0 0 0 0 0 0 0 0 0 0 0 0 0 0 0 0 0 0 0 0 0 0 0 0 0 0
1 1 1 1 1 1 0 0 0 0 0 0 0 0 -0 -0 0 0 0 0 0 0 0 0 0 0 0 0 0 0 0 0 0 0 0 0 0 0 0 0 0 0 0
1 1 1 1 1 1 0 0 0 0 0 0 0 0 -0 -0 -0 0 0 0 0 0 0 0 0 0 0 0 0 0 0 0 0 0 0 0 0 0 0 0 0 0 0
Wind_Speed
6 7 14 14 13 12 12 12 11 11 11 11 10 10 10 10 9 9 9 9 9 9 10 10 11 12 12 12 12 13 13 12 12 11 10 11 11 11 11 11 12 8 12
10 10 15 14 13 13 12 11 11 10 10 10 10 9 9 9 8 8 8 9 9 10 10 11 11 11 11 11 12 12 11 11 11 10 9 9 10 11 11 11 11 7 11
12 10 12 14 13 13 12 11 11 10 10 9 9 9 8 8 8 8 8 8 8 9 10 10 10 10 10 11 11 10 10 10 10 10 8 4 6 10 10 11 11 11 11
13 9 11 15 13 13 12 11 10 10 10 9 9 8 8 8 7 7 7 8 8 8 9 9 9 9 10 9 9 9 8 9 9 8 4 3 4 9 10 11 11 11 11
11 9 11 15 14 13 12 11 10 10 9 9 8 8 7 7 7 6 6 7 7 7 7 8 8 8 8 8 8 8 7 7 8 7 4 4 3 8 10 11 11 11 11
10 8 11 15 14 12 11 11 10 9 9 8 8 7 7 6 6 5 5 6 6 6 7 7 7 7 7 7 7 7 8 8 7 4 3 3 3 7 9 10 10 10 10
10 8 10 15 13 12 11 10 10 9 8 7 7 7 6 5 4 3 4 6 6 6 6 6 6 6 5 5 5 7 8 8 5 3 3 3 4 8 9 9 9 10 10
12 9 9 14 14 13 11 10 9 9 8 7 6 6 5 4 4 3 5 6 6 5 5 5 5 4 4 4 5 7 7 7 6 4 3 3 6 8 9 9 9 9 9
12 10 7 7 9 12 12 11 10 9 8 7 6 5 4 4 3 4 5 5 5 5 5 5 4 4 3 3 4 5 6 7 4 3 4 3 6 9 10 9 9 8 8
9 8 7 6 6 6 7 10 10 9 8 7 6 5 5 4 3 3 3 4 5 5 5 4 4 4 3 3 4 6 7 5 3 3 2 5 8 9 10 10 9 8 8
8 6 6 6 6 5 6 8 8 8 8 7 5 5 4 1 1 1 2 4 4 4 5 4 4 3 3 2 3 4 5 2 3 2 2 6 9 9 10 10 10 9 8
9 7 6 7 6 6 5 4 3 3 3 3 2 2 1 1 1 2 2 3 4 4 4 4 3 3 2 1 2 3 2 2 2 2 3 8 9 9 9 10 9 9 8
10 9 8 7 7 6 3 4 2 1 2 2 2 2 2 1 1 1 0 1 1 2 1 1 1 1 1 1 1 2 2 2 1 1 4 9 9 9 9 9 9 9 8
10 10 8 8 7 5 4 4 3 2 2 2 2 2 2 1 1 1 1 1 1 1 1 1 1 1 1 2 3 3 2 2 1 1 3 9 9 9 9 9 9 8 7
9 9 9 8 7 6 5 3 3 3 3 3 2 2 2 2 1 1 1 1 1 1 2 1 1 1 1 2 2 3 3 3 2 2 2 7 8 8 9 9 9 8 8
10 9 8 8 7 7 5 4 3 3 3 2 2 2 2 2 1 2 2 1 1 2 2 2 2 2 1 1 2 2 2 3 3 2 2 4 8 9 8 8 8 8 8
10 9 9 9 7 7 6 5 4 3 3 2 2 2 2 2 2 2 2 1 1 1 2 2 2 2 1 1 1 1 1 2 3 3 2 2 3 7 8 7 8 8 8
9 8 8 8 7 6 5 4 3 3 3 2 2 2 2 2 2 2 2 1 1 2 2 2 2 2 1 1 1 1 1 1 1 2 2 2 2 2 5 7 7 7 7
10 9 8 7 7 6 5 4 3 3 3 2 2 1 1 2 3 3 2 1 2 2 2 2 2 2 2 1 0 1 1 1 1 2 1 2 2 2 2 5 7 7 7
9 8 8 7 7 6 5 3 3 2 2 2 2 2 2 2 2 2 2 1 2 2 2 2 2 1 1 1 1 1 0 1 1 2 3 2 2 3 3 3 3 4 7
8 8 8 8 7 6 4 4 3 2 1 1 1 2 2 2 2 2 2 1 2 2 2 2 2 2 1 1 2 2 2 1 0 1 1 2 2 2 2 2 2 1 2
9 8 8 8 7 6 5 4 3 3 2 2 1 1 2 2 2 2 2 2 2 2 2 2 3 2 1 1 2 2 2 3 2 1 0 2 2 1 2 2 2 2 2
9 8 8 7 7 6 5 3 3 2 1 1 1 1 1 2 2 2 2 2 2 2 2 2 3 3 2 1 2 3 2 2 1 2 1 1 1 1 2 2 2 2 3
9 8 8 7 6 6 6 6 6 4 3 3 2 2 1 2 2 2 2 2 2 2 2 2 2 2 3 1 1 1 2 3 2 1 2 1 1 1 2 2 2 3 3
9 8 8 8 7 6 6 7 6 4 3 2 2 2 2 1 2 2 2 2 2 1 2 2 2 2 2 2 2 1 1 0 1 2 2 1 1 1 1 2 2 2 3
7 7 7 8 6 6 6 6 6 6 5 4 3 3 2 1 1 1 2 2 2 2 2 2 2 2 2 2 1 1 2 2 2 2 2 1 1 1 0 0 1 2 2
Wind_Direction
154 158 143 133 127 121 115 110 104 100 96 91 89 88 87 86 84 83 81 81 84 93 102 106 107 109 112 117 120 121 122 122 122 122 123 128 132 133 133 135 128 123 126
153 156 143 136 131 127 122 117 112 107 103 99 95 93 91 89 87 86 83 82 83 88 97 104 108 111 113 116 120 122 123 123 123 125 126 128 129 131 133 134 131 127 127
145 149 143 139 135 131 127 123 119 116 111 107 103 100 98 95 91 90 88 87 86 90 97 103 108 112 114 114 118 122 125 129 128 130 132 132 130 132 133 133 131 130 131
146 148 145 142 139 135 132 129 126 122 117 113 110 106 103 99 94 92 93 93 94 96 100 104 106 110 113 115 119 124 125 131 137 134 128 124 128 137 134 131 133 135 133
144 147 149 145 143 140 137 135 132 127 122 118 115 111 106 101 99 99 99 100 102 105 108 110 112 110 114 118 121 125 125 129 132 129 117 117 125 141 139 135 137 137 136
142 148 151 146 145 143 142 140 138 135 130 124 121 117 111 105 103 103 109 112 111 112 115 115 117 114 112 117 121 124 123 124 126 122 121 132 136 141 143 142 139 139 138
144 149 152 147 149 148 148 147 144 141 136 131 127 122 116 109 102 103 123 130 126 123 124 123 124 120 115 114 123 127 125 127 122 120 133 140 143 145 145 143 141 141 141
145 147 151 153 155 153 153 152 149 146 143 141 138 132 127 121 113 105 132 133 133 134 136 134 133 127 122 119 121 125 125 129 127 128 136 145 154 154 149 144 143 143 144
144 146 151 156 156 157 156 154 152 150 149 149 151 150 147 143 136 126 128 137 141 144 147 146 142 133 123 125 133 130 126 125 123 141 150 153 156 157 153 151 147 147 153
143 148 153 155 155 157 160 160 162 162 160 159 159 159 160 162 156 148 152 157 155 156 157 157 153 143 129 119 123 124 125 119 119 127 145 159 160 160 155 152 152 153 155
144 152 155 158 159 160 167 171 169 169 170 169 168 168 161 150 154 162 178 179 169 166 167 164 160 155 137 118 124 125 119 118 127 129 146 158 162 162 162 159 161 162 164
156 161 160 161 163 166 176 161 162 170 174 172 178 182 168 162 172 180 195 183 174 170 169 167 171 166 138 105 121 121 119 124 130 148 161 161 161 158 158 160 162 163 161
163 166 170 168 166 166 159 151 160 166 162 167 174 170 156 144 158 171 192 199 188 180 158 153 149 132 118 124 121 126 134 127 137 163 160 161 164 166 164 166 166 164 162
164 171 171 168 164 164 152 156 160 155 155 167 173 162 148 149 171 187 187 186 168 162 146 140 141 132 134 146 141 140 141 142 152 168 169 161 168 175 171 167 168 168 168
166 171 169 165 162 158 148 157 154 156 163 170 168 170 158 165 182 187 185 178 180 164 152 146 143 144 131 126 137 142 150 155 167 175 176 169 170 176 174 173 175 175 173
168 169 166 161 163 153 151 154 154 160 163 160 169 180 171 166 168 172 162 167 179 175 161 149 155 144 135 127 134 148 155 161 164 170 181 180 175 177 182 183 179 177 183
168 165 164 160 156 152 154 157 152 163 161 162 176 180 170 157 151 145 143 150 165 147 131 119 122 112 108 103 121 149 150 159 163 166 170 180 186 190 189 187 186 188 191
162 162 163 160 152 151 151 147 141 147 149 159 163 164 165 153 140 133 130 152 151 126 119 128 125 107 100 105 121 158 147 146 165 172 170 176 189 193 194 194 192 195 195
165 163 159 152 151 150 143 134 130 132 137 148 145 145 162 156 135 129 139 149 133 125 123 140 123 127 124 114 146 140 143 164 183 186 189 205 197 192 196 199 200 198 200
163 156 153 146 149 144 133 124 116 112 122 129 143 157 160 154 133 129 136 130 126 125 120 118 129 121 134 148 130 48 19 208 182 189 207 211 196 194 193 202 199 206 206
152 148 152 150 154 149 147 152 154 160 156 149 172 166 162 148 136 130 134 125 129 138 145 139 126 126 124 105 78 28 352 346 298 223 208 180 196 199 176 188 185 189 212
157 155 154 157 161 163 164 164 162 158 167 172 168 156 156 143 144 147 129 137 140 131 128 133 123 124 168 139 125 95 10 348 334 304 199 176 195 176 171 184 174 178 194
157 161 160 161 163 163 151 135 119 97 79 94 145 193 180 154 151 140 146 139 141 144 153 154 150 146 177 225 154 147 157 220 291 320 291 219 186 178 197 193 183 186 189
169 165 156 158 159 160 151 151 153 160 173 193 186 187 182 165 160 151 147 145 148 153 162 179 160 161 157 182 230 202 185 172 169 277 309 306 234 201 207 207 198 194 189
168 163 159 156 159 159 162 163 160 162 172 160 150 152 171 185 178 170 155 153 162 166 171 163 147 155 160 172 186 187 169 173 166 166 250 290 321 276 218 200 195 197 196
157 156 155 153 158 159 158 157 161 162 160 150 156 167 186 194 199 191 167 171 178 177 169 171 165 158 168 171 181 176 171 173 190 175 203 229 245 279 267 178 196 200 203